Change the Weather History Date:

Thursday, August 29, 2013

  Actual Average Record
Temperature  
Mean Temperature 62 °F -  
Max Temperature 66 °F 73 °F 86 °F (1999)
Min Temperature 59 °F 58 °F 51 °F (2014)
Degree Days  
Heating Degree Days 2    
Growing Degree Days 12 (Base 50)    
Moisture  
Dew Point 62 °F    
Average Humidity 93    
Maximum Humidity 100    
Minimum Humidity 82    
Precipitation  
Precipitation 0.00 in - - ()
Sea Level Pressure  
Sea Level Pressure 30.01 in    
Wind  
Wind Speed 9 mph (NE)    
Max Wind Speed 17 mph    
Max Gust Speed 21 mph    
Visibility 8 miles    
Events      
Averages and records for this station are not official NWS values.
T = Trace of Precipitation, MM = Missing Value Source: NWS Daily Summary

Daily Weather History Graph

Daily Weather History Graph

Search for Another Location

Airport or City:

Trip Planner

Search our weather history database for the weather conditions in past years. The results will help you decide how hot, cold, wet, or windy it might be!

Date:

Astronomy

Aug. 29, 2013 Rise Set
Actual Time 6:05 AM EDT 7:19 PM EDT
Civil Twilight 5:36 AM EDT 7:48 PM EDT
Nautical Twilight 5:01 AM EDT 8:22 PM EDT
Astronomical Twilight 4:25 AM EDT 8:58 PM EDT
Moon No Moon Rise 2:48 PM EDT (8/29)
Length of Visible Light 14h 12m
Length of Day
13h 14m
Last Quarter, 38% of the Moon is Illuminated
Aug 29
Last Quarter
Sep 5
New
Sep 12
First Quarter
Sep 19
Full
Sep 26
Last Quarter

Hourly Weather History & Observations

Time (EDT) Temp. Dew Point Humidity Pressure Visibility Wind Dir Wind Speed Gust Speed Precip Events Conditions
12:15 AM 64.4 °F 64.4 °F 100% 29.96 in 1.0 mi NE 8.1 mph - N/A   Overcast
12:35 AM 64.4 °F 64.4 °F 100% 29.96 in 2.0 mi NNE 9.2 mph - N/A   Overcast
12:55 AM 64.4 °F 64.4 °F 100% 29.96 in 4.0 mi NNE 8.1 mph - N/A   Overcast
1:15 AM 64.4 °F 64.4 °F 100% 29.96 in 8.0 mi NE 8.1 mph - N/A   Overcast
1:35 AM 64.4 °F 64.4 °F 100% 29.95 in 5.0 mi NNE 4.6 mph - N/A   Overcast
1:55 AM 64.4 °F 64.4 °F 100% 29.95 in 8.0 mi NNE 5.8 mph - N/A   Overcast
2:15 AM 64.4 °F 64.4 °F 100% 29.95 in 8.0 mi NNE 5.8 mph - N/A   Overcast
2:35 AM 64.4 °F 64.4 °F 100% 29.95 in 8.0 mi NE 6.9 mph - N/A   Overcast
2:55 AM 64.4 °F 64.4 °F 100% 29.95 in 9.0 mi NE 8.1 mph - N/A   Overcast
3:15 AM 66.2 °F 64.4 °F 94% 29.95 in 10.0 mi NE 8.1 mph - N/A   Overcast
3:35 AM 66.2 °F 64.4 °F 94% 29.96 in 10.0 mi NE 5.8 mph - N/A   Overcast
3:55 AM 66.2 °F 64.4 °F 94% 29.96 in 10.0 mi NE 6.9 mph - N/A   Overcast
4:15 AM 66.2 °F 64.4 °F 94% 29.95 in 10.0 mi NE 8.1 mph - N/A   Overcast
4:35 AM - - N/A% 29.95 in - NE 9.2 mph - N/A   Unknown
4:55 AM 66.2 °F 64.4 °F 94% 29.96 in 10.0 mi NE 6.9 mph - N/A   Overcast
5:15 AM 66.2 °F 64.4 °F 94% 29.96 in 9.0 mi NE 9.2 mph 16.1 mph N/A   Overcast
5:35 AM 64.4 °F 64.4 °F 100% 29.96 in 10.0 mi NE 10.4 mph - N/A   Overcast
5:55 AM 64.4 °F 64.4 °F 100% 29.97 in 10.0 mi NE 11.5 mph - N/A   Overcast
6:15 AM 64.4 °F 64.4 °F 100% 29.98 in 10.0 mi NE 12.7 mph - N/A   Overcast
6:35 AM 64.4 °F 64.4 °F 100% 29.99 in 7.0 mi NE 13.8 mph 17.3 mph N/A   Overcast
6:55 AM 64.4 °F 64.4 °F 100% 29.99 in 2.5 mi NNE 12.7 mph 17.3 mph N/A   Overcast
7:15 AM 64.4 °F 64.4 °F 100% 29.99 in 6.0 mi NNE 10.4 mph 16.1 mph N/A   Overcast
7:35 AM 64.4 °F 64.4 °F 100% 29.99 in 9.0 mi NE 11.5 mph 19.6 mph N/A   Overcast
7:55 AM 64.4 °F 64.4 °F 100% 29.99 in 10.0 mi NE 13.8 mph 17.3 mph N/A   Overcast
8:15 AM 64.4 °F 64.4 °F 100% 30.00 in 10.0 mi NE 12.7 mph - N/A   Overcast
8:35 AM 64.4 °F 64.4 °F 100% 30.01 in 10.0 mi NNE 11.5 mph - N/A   Overcast
8:55 AM 64.4 °F 64.4 °F 100% 30.01 in 10.0 mi NE 11.5 mph 16.1 mph N/A   Overcast
9:15 AM 64.4 °F 64.4 °F 100% 30.02 in 10.0 mi NNE 9.2 mph - N/A   Overcast
9:35 AM 64.4 °F 64.4 °F 100% 30.02 in 9.0 mi NE 8.1 mph - N/A   Overcast
9:55 AM 64.4 °F 64.4 °F 100% 30.02 in 10.0 mi NE 10.4 mph - N/A   Overcast
10:15 AM 66.2 °F 64.4 °F 94% 30.03 in 10.0 mi NNE 8.1 mph - N/A   Overcast
10:35 AM 66.2 °F 64.4 °F 94% 30.03 in 8.0 mi NNE 10.4 mph 16.1 mph N/A   Overcast
10:55 AM 64.4 °F 64.4 °F 100% 30.03 in 8.0 mi NE 11.5 mph - N/A   Overcast
11:15 AM 66.2 °F 64.4 °F 94% 30.03 in 8.0 mi NNE 6.9 mph - N/A   Overcast
11:35 AM 66.2 °F 62.6 °F 88% 30.03 in 10.0 mi NE 11.5 mph - N/A   Overcast
11:55 AM 66.2 °F 62.6 °F 88% 30.03 in 10.0 mi NNE 8.1 mph - N/A   Overcast
12:15 PM 66.2 °F 62.6 °F 88% 30.03 in 7.0 mi NNE 8.1 mph - N/A   Overcast
12:35 PM 66.2 °F 64.4 °F 94% 30.02 in 2.0 mi NNE 6.9 mph - N/A   Overcast
12:55 PM 66.2 °F 64.4 °F 94% 30.02 in 2.0 mi NE 10.4 mph - N/A   Overcast
1:15 PM 64.4 °F 64.4 °F 100% 30.03 in 2.5 mi ENE 15.0 mph - N/A   Mostly Cloudy
1:35 PM 64.4 °F 64.4 °F 100% 30.03 in 5.0 mi NE 8.1 mph 16.1 mph N/A   Overcast
1:55 PM 66.2 °F 64.4 °F 94% 30.02 in 9.0 mi NE 11.5 mph - N/A   Overcast
2:15 PM 66.2 °F 62.6 °F 88% 30.02 in 8.0 mi NE 12.7 mph 16.1 mph N/A   Overcast
2:35 PM 66.2 °F 62.6 °F 88% 30.02 in 7.0 mi NE 10.4 mph - N/A   Overcast
2:55 PM 66.2 °F 62.6 °F 88% 30.02 in 6.0 mi NE 16.1 mph 20.7 mph N/A   Overcast
3:15 PM 66.2 °F 62.6 °F 88% 30.02 in 9.0 mi NE 12.7 mph - N/A   Mostly Cloudy
3:35 PM 66.2 °F 62.6 °F 88% 30.02 in 10.0 mi NE 12.7 mph - N/A   Overcast
3:55 PM 66.2 °F 60.8 °F 83% 30.02 in 10.0 mi NE 15.0 mph 18.4 mph N/A   Overcast
4:15 PM 64.4 °F 60.8 °F 88% 30.03 in 10.0 mi NE 12.7 mph 16.1 mph N/A   Overcast
4:35 PM 64.4 °F 60.8 °F 88% 30.03 in 10.0 mi NE 11.5 mph 17.3 mph N/A   Overcast
4:55 PM 64.4 °F 59.0 °F 83% 30.03 in 10.0 mi NE 13.8 mph 18.4 mph N/A   Overcast
5:15 PM 64.4 °F 59.0 °F 83% 30.04 in 10.0 mi NE 13.8 mph 19.6 mph N/A   Overcast
5:35 PM 64.4 °F 59.0 °F 83% 30.04 in 10.0 mi NE 13.8 mph 20.7 mph N/A   Overcast
5:55 PM 62.6 °F 59.0 °F 88% 30.04 in 10.0 mi NE 13.8 mph - N/A   Overcast
6:15 PM 62.6 °F 59.0 °F 88% 30.05 in 10.0 mi NNE 11.5 mph 18.4 mph N/A   Overcast
6:35 PM 62.6 °F 59.0 °F 88% 30.05 in 10.0 mi NE 12.7 mph 19.6 mph N/A   Overcast
6:55 PM 62.6 °F 57.2 °F 82% 30.05 in 10.0 mi NE 11.5 mph 18.4 mph N/A   Overcast
7:15 PM 62.6 °F 57.2 °F 82% 30.04 in 10.0 mi NE 12.7 mph 18.4 mph N/A   Overcast
7:35 PM 62.6 °F 57.2 °F 82% 30.04 in 10.0 mi NE 12.7 mph 17.3 mph N/A   Overcast
7:55 PM 60.8 °F 57.2 °F 88% 30.04 in 10.0 mi NE 12.7 mph 17.3 mph N/A   Overcast
8:15 PM 60.8 °F 57.2 °F 88% 30.04 in 10.0 mi NNE 10.4 mph 18.4 mph N/A   Overcast
8:35 PM 60.8 °F 57.2 °F 88% 30.04 in 10.0 mi NE 9.2 mph 16.1 mph N/A   Scattered Clouds
8:55 PM 59.0 °F 57.2 °F 94% 30.04 in 10.0 mi NE 4.6 mph - N/A   Partly Cloudy
9:15 PM 59.0 °F 57.2 °F 94% 30.04 in 10.0 mi NE 6.9 mph - N/A   Clear
9:35 PM 59.0 °F 57.2 °F 94% 30.04 in 10.0 mi NE 8.1 mph - N/A   Clear
9:55 PM 59.0 °F 57.2 °F 94% 30.04 in 10.0 mi NE 9.2 mph - N/A   Clear
10:15 PM 59.0 °F 57.2 °F 94% 30.03 in 10.0 mi NE 8.1 mph - N/A   Clear
10:35 PM 59.0 °F 57.2 °F 94% 30.04 in 10.0 mi NNE 6.9 mph - N/A   Clear
10:55 PM 59.0 °F 57.2 °F 94% 30.03 in 10.0 mi NE 9.2 mph - N/A   Clear
11:15 PM 59.0 °F 57.2 °F 94% 30.03 in 10.0 mi NNE 8.1 mph - N/A   Clear
11:35 PM 59.0 °F 55.4 °F 88% 30.03 in 10.0 mi NE 6.9 mph - N/A   Clear
11:55 PM 59.0 °F 55.4 °F 88% 30.02 in 10.0 mi NNE 5.8 mph - N/A   Clear